Content
SEND FEEDBACK

Daily
Averages
Monthly
Summary
United States of America

MORRISVILLE, NORTH CAROLINA


Home > North America > United States > North Carolina
Elevation: 387 feet     Latitude: 35 52N     Longitude: 078 47W

WEATHER
 
SELECT A DAY
Number of Records: 192,745;   Date Range: 1/1/95 - 7/7/14
 
SHARE

PRINT THIS DATA

[ ← Previous Day ]
WEATHER ALMANAC - FEBRUARY 4, 2013
[ Next Day → ]
[ °C ]   °F
Weather ElementAverageHighLow
Temperature39.3 °F48.9 °F (2:51 pm)26.6 °F (5:51 am)
Dewpoint21 °F25 °F (9:51 pm)17.1 °F (10:51 am)
Humidity49.9 %78 % (7:51 am)33 % (2:51 pm)
Barometer30.07 in30.16 in (10:51 am)30.01 in (1:51 am)
Wind Speed5 mph11.5 mph (2:51 pm)
Weather ElementAverage
Visibility10 mi
Wind DirectionESE (106.8 °)

Weather ElementTotal
Precipitation---
Heating Degree Days27.3 (Base 65)
Averaged from 22 records on February 4, 2013
WEATHER CONDITIONS BREAKOUT
WIND DIRECTION BREAKOUT
WEATHER BY HOUR - FEBRUARY 4, 2013
[ °C ]   °F
Local TimeTemperatureDewpointHumidityBarometerVisibilityWind DirectionWind SpeedGust SpeedPrecipitationEventsConditions
1:51 AM35.1 °F19.9 °F54 %30.01 in10.0 miCalmClear
2:51 AM30.9 °F19.9 °F64 %30.04 in10.0 miCalmPartly Cloudy
3:51 AM30.0 °F19.9 °F66 %30.04 in10.0 miNorth (10°)3.5 mphPartly Cloudy
5:51 AM26.6 °F19.4 °F74 %30.07 in10.0 miCalmScattered Clouds
6:51 AM27.0 °F19.9 °F75 %30.09 in10.0 miCalmMostly Cloudy
7:51 AM28.0 °F21.9 °F78 %30.11 in10.0 miCalmMostly Cloudy
8:51 AM35.1 °F19.9 °F54 %30.14 in10.0 miVariable4.6 mphMostly Cloudy
9:51 AM37.0 °F19.0 °F48 %30.14 in10.0 miCalmOvercast
10:51 AM39.0 °F17.1 °F41 %30.16 in10.0 miVariable5.8 mphMostly Cloudy
11:51 AM43.0 °F19.0 °F38 %30.13 in10.0 miVariable5.8 mphMostly Cloudy
12:51 PM45.0 °F19.0 °F36 %30.11 in10.0 miVariable3.5 mphMostly Cloudy
1:51 PM46.9 °F19.9 °F34 %30.07 in10.0 miSW (220°)5.8 mphMostly Cloudy
2:51 PM48.9 °F21.0 °F33 %30.07 in10.0 miSW (230°)11.5 mphMostly Cloudy
3:51 PM48.0 °F21.0 °F34 %30.06 in10.0 miWSW (240°)8.1 mphMostly Cloudy
4:51 PM46.0 °F21.0 °F37 %30.04 in10.0 miSSW (210°)8.1 mphOvercast
5:51 PM45.0 °F21.9 °F40 %30.03 in10.0 miSSW (210°)5.8 mphOvercast
6:51 PM45.0 °F21.9 °F40 %30.03 in10.0 miSouth (190°)6.9 mphOvercast
7:51 PM45.0 °F21.9 °F40 %30.03 in10.0 miSouth (190°)8.1 mphOvercast
8:51 PM43.0 °F24.1 °F47 %30.04 in10.0 miSW (220°)10.4 mphMostly Cloudy
9:51 PM43.0 °F25.0 °F49 %30.03 in10.0 miSSW (210°)9.2 mphMostly Cloudy
10:51 PM41.0 °F25.0 °F53 %30.03 in10.0 miSSW (200°)6.9 mphPartly Cloudy
11:51 PM37.0 °F25.0 °F62 %30.02 in10.0 miSW (220°)6.9 mphPartly Cloudy
Hourly data recorded from KRDU, located miles away from Morrisville, North Carolina







STORIES FROM OUR PARTNERS